SL-14 DEB, 45294

Orbit data source: Space-Track

SL-14 DEB, 45294 is space debris in LEO originally from a launch on Thu, 15 Aug 1991 UTC launched from the Plesetsk Missile And Space Complex (PKMTR). Debris objects in space refer to the collection of defunct objects orbiting the Earth. Examples of debris include non-operational satellites, rocket bodies, and fragments generated from explosions, collisions, or faulty payload assembly.

Loading next visibility...
Identifier
45294, 1991-056AG
Orbit
LEO
Last TLE update
1 day ago
Origin
Manufacturer
Unknown
Mission
Spacecraft
Bus & Motor
Unknown
Mass
Unknown
Launch date (UTC)
1991-08-15 (34 years ago)
Launch vehicle
Unknown
Launch site
Plesetsk Missile And Space Complex (PKMTR)
Object type
Payload
Rocket body
Debris
Shape & HBR
Unknown
Radar Cross Section
Small (<0.1 m²)

Expand to show TLE details & history

TLE from 1 day ago
0 SL-14 DEB
1 45294U 91056AG  25198.91002746  .00000783  00000-0  18898-2 0  9993
2 45294  82.5685  13.6956 0012013 227.0962 132.9156 13.20912799259629
Epoch: 2025-07-17T21:50Z
TLE epoch observation values (Epoch: 2025-07-17T21:50:26.372Z)
Latitude
0.00007°
Longitude
110.11666°
Altitude
1,190.239 km
Speed
7.256 km/s
True Right ascension
00h 54m 46s
True Declination
0° 00' 00"
Sunlit
Object was in daylight at epoch
Visualization orbit readout
Latitude
68.05858°
Longitude
-89.44614°
Altitude
1,196.615 km
Speed
7.26 km/s
Apparent Right ascension
01h 56m 10s
Apparent Declination
51° 57' 13"
Sunlit
Object is in daylight
Visualization observer readout
Local Sidereal Time
12:38:44
Azimuth
348.191° N
Elevation
3.402°
Doppler factor
1
Orbital elements
Apogee altitude
1,187.552 km
Perigee altitude
1,169.396 km
Semi-major axis
7,556.611 km
Eccentricity
0.0012
Inclination
82.5685°
RAAN
13.6956°
Arg. of periapsis
227.0962°
True anomaly
133.01631°
Mean anomaly
132.9156°
Eccentric anomaly
132.96597°
Mean motion
3.3041 °/min
Orbital period
108.96 mins
BSTAR
0.0018898
Loading maneuver chart data...
Loading SW <> Apogee altitude chart data...
Loading historical data...
Loading historical data...
Loading historical data...
Loading historical data...
Loading historical data...
Loading historical data...
Loading historical data...
|